Flag for U.S.A. Weather past 2 weeks in Myrtle Beach, South Carolina, U.S.A.

Now
75 °F

Mostly cloudy.


Feels Like: 77 °F
Forecast: 71 / 76 °F
Wind: 8 mph from Southeast

Location: Myrtle Beach Air Force Base

Current Time: Jun 3, 2015 at 3:57:32 PM

Latest Report: Jun 3, 2015 at 2:45 PM


Visibility: 10 mi

Pressure: 30.03 "Hg

Humidity: 74%

Dew point: 66 °F

Location of Myrtle BeachLocation

Historic Weather in Myrtle Beach — Graph

°F

Myrtle Beach temperature yesterday

Maximum temperature yesterday: 81 °F (at 8:45 AM)
Minimum temperature yesterday: 70 °F (at 11:50 AM)
Average temperature yesterday: 76 °F

Past Weeks' High & Low Weather Summary

 TemperatureHumidityPressure
High90 °F (May 21, 2:54 PM)89% (May 19, 11:15 PM)30.42 "Hg (May 19, 11:15 PM)
Low61 °F (May 23, 1:35 AM)41% (May 23, 11:50 AM)29.76 "Hg (May 21, 4:45 PM)
Average75 °F71%30.15 "Hg
* Reported May 19 1:45 PM — Jun 3 1:45 PM, Myrtle Beach, Weather by CustomWeather, © 2015

Note: Actual official high and low records may vary slightly from our data, if they occured in-between our weather recording intervals... More about our weather records

Advertising

Myrtle Beach weather history for previous 24 hours

 ConditionsComfort  
Time TempWeatherWind HumidityBarometerVisibility
1:45 PM
Wed, Jun 3
75 °FScattered showers. Mostly cloudy.12 mph74%30.03 "Hg10 mi
12:45 PM73 °FScattered showers. More clouds than sun.12 mph83%30.03 "Hg10 mi
11:45 AM73 °FLight rain. Cloudy.9 mph83%30.05 "Hg7 mi
10:50 AM73 °FScattered showers. Cloudy.6 mph83%30.04 "Hg7 mi
9:45 AM72 °FScattered showers. Cloudy.7 mph88%30.06 "Hg7 mi
8:45 AM72 °FScattered showers. Overcast.5 mph83%30.00 "Hg8 mi
7:45 AM70 °FScattered showers. More clouds than sun.5 mph83%30.00 "Hg8 mi
6:45 AM70 °FRain. Fog.6 mph88%30.02 "Hg5 mi
5:55 AM68 °FMostly cloudy.3 mph88%30.01 "Hg5 mi
5:35 AM68 °FPartly cloudy.7 mph88%30.02 "Hg5 mi
5:15 AM68 °FThunderstorms. Partly cloudy.7 mph88%30.01 "Hg10 mi
4:55 AM68 °FThundershowers. Partly cloudy.6 mph88%30.00 "Hg10 mi
4:35 AM68 °FOvercast.6 mph83%29.99 "Hg9 mi
4:15 AM68 °FMostly cloudy.3 mph83%30.00 "Hg9 mi
3:55 AM68 °FThundershowers. Partly cloudy.8 mph88%29.99 "Hg10 mi
3:35 AM68 °FThundershowers. Mostly cloudy.9 mph88%29.99 "Hg10 mi
3:15 AM68 °FThunderstorms. Overcast.9 mph88%29.99 "Hg10 mi
2:55 AM70 °FThunderstorms. Mostly cloudy.20 mph78%29.97 "Hg6 mi
2:35 AM72 °FThunderstorms. Mostly cloudy.14 mph73%29.99 "Hg10 mi
2:15 AM73 °FThunderstorms. Mostly cloudy.No wind89%29.99 "Hg10 mi
1:55 AM75 °FThunderstorms. Overcast.No wind83%29.98 "Hg10 mi
1:35 AM75 °FThunderstorms. Partly cloudy.No wind83%29.99 "Hg10 mi
1:15 AM75 °FThundershowers. Clear.3 mph83%29.99 "Hg10 mi
12:55 AM75 °FThundershowers. Passing clouds.3 mph83%30.00 "Hg10 mi
12:35 AM73 °FClear.5 mph89%29.99 "Hg10 mi
12:15 AM73 °FClear.3 mph89%30.00 "Hg10 mi
11:35 PM
Tue, Jun 2
75 °FPassing clouds.5 mph83%30.00 "Hg10 mi
11:15 PM79 °FPartly cloudy.6 mph74%30.01 "Hg10 mi
10:55 PM79 °FPassing clouds.9 mph74%30.01 "Hg10 mi
9:45 PM79 °FPassing clouds.8 mph70%29.99 "Hg10 mi
8:45 PM79 °FScattered clouds.6 mph70%29.99 "Hg10 mi
7:45 PM79 °FBroken clouds.7 mph74%29.98 "Hg10 mi
6:45 PM79 °FPartly sunny.9 mph74%29.95 "Hg10 mi
5:45 PM81 °FPassing clouds.12 mph70%29.97 "Hg10 mi
4:45 PM79 °FScattered clouds.9 mph79%29.98 "Hg10 mi
3:45 PM75 °FThundershowers. Partly sunny.No wind83%29.99 "Hg7 mi
Weather by CustomWeather, © 2015

See weather overviewHow to use our weather pages